Date String (YYYY-MM-DD hh:mm:ss) UTC,Instrument flags,Ambient pressure (hPa),Sample flow (lpm),Bypass flow (lpm),Sample temperature (°C),Ambient temperature (°C),ASC tube jacket temperature (°C),LED temperature (°C),Box temperature (°C),Sample RH (%),Span deviation,Mass concentration (μg/m³),Mass concentration (μg/m³),Mass concentration (μg/m³)
DateTimeUTC,F1_M11,P_M11,Q1_M11,Q2_M11,T1_M11,T2_M11,T3_M11,T4_M11,T5_M11,U1_M11,ZSPAN_M11,X2_M11,X0_M11,X1_M11
2022-07-23 20:00:00,,0826.1,4.98,0.00,28.8,27.5,00.0,37.4,30.8,25.6,0000.0,0004.49,0012.70,0003.47
2022-07-23 20:01:00,,0826.1,5.00,0.00,28.8,27.3,00.0,37.4,30.8,25.4,0000.0,0004.54,0012.44,0003.48
2022-07-23 20:02:00,,0826.0,5.01,0.00,28.8,26.7,00.0,37.4,30.7,25.6,0000.0,0004.50,0012.00,0003.49
2022-07-23 20:03:00,,0826.0,5.00,0.00,28.8,26.6,00.0,37.3,30.7,24.9,0000.0,0004.47,0011.87,0003.50
2022-07-23 20:04:00,,0826.0,5.01,0.00,28.7,26.7,00.0,37.4,30.7,24.4,0000.0,0004.46,0012.53,0003.50
2022-07-23 20:05:00,,0826.0,5.00,0.00,28.7,26.9,00.0,37.4,30.6,24.7,0000.0,0004.47,0012.59,0003.50
2022-07-23 20:06:00,,0826.0,5.01,0.00,28.7,27.1,00.0,37.4,30.7,24.3,0000.0,0004.50,0011.87,0003.51
2022-07-23 20:07:00,,0826.0,4.99,0.00,28.8,27.3,00.0,37.4,30.8,24.5,0000.0,0004.51,0012.53,0003.53
2022-07-23 20:08:00,,0826.0,5.01,0.00,28.8,27.4,00.0,37.4,30.8,24.4,0000.0,0004.49,0012.04,0003.54
2022-07-23 20:09:00,,0826.0,5.00,0.00,28.8,27.0,00.0,37.4,30.8,24.4,0000.0,0004.42,0011.39,0003.54
2022-07-23 20:10:00,,0826.0,4.99,0.00,28.8,26.6,00.0,37.3,30.7,23.6,0000.0,0004.41,0012.39,0003.54
2022-07-23 20:11:00,,0825.9,5.01,0.00,28.7,26.6,00.0,37.4,30.6,23.2,0000.0,0004.45,0012.51,0003.54
2022-07-23 20:12:00,,0826.0,5.00,0.00,28.7,26.8,00.0,37.4,30.6,23.9,0000.0,0004.42,0012.38,0003.54
2022-07-23 20:13:00,,0826.0,5.00,0.00,28.7,26.9,00.0,37.4,30.6,24.5,0000.0,0004.44,0012.59,0003.53
2022-07-23 20:14:00,,0826.0,4.99,0.00,28.7,27.2,00.0,37.4,30.7,24.6,0000.0,0004.45,0013.04,0003.52
2022-07-23 20:15:00,,0826.0,5.01,0.00,28.8,27.4,00.0,37.4,30.8,24.5,0000.0,0004.46,0012.66,0003.53
2022-07-23 20:16:00,,0826.0,5.01,0.00,28.8,27.5,00.0,37.4,30.9,24.5,0000.0,0004.47,0012.59,0003.53
2022-07-23 20:17:00,,0826.0,5.00,0.00,28.8,27.0,00.0,37.4,30.8,23.7,0000.0,0004.41,0012.49,0003.54
2022-07-23 20:18:00,,0826.1,5.00,0.00,28.8,26.6,00.0,37.3,30.7,24.0,0000.0,0004.37,0011.78,0003.53
2022-07-23 20:19:00,,0826.1,5.00,0.00,28.8,26.7,00.0,37.4,30.7,23.7,0000.0,0004.38,0010.83,0003.54
2022-07-23 20:20:00,,0826.1,5.00,0.00,28.7,26.8,00.0,37.4,30.6,23.2,0000.0,0004.39,0010.89,0003.54
2022-07-23 20:21:00,,0826.1,5.00,0.00,28.7,27.0,00.0,37.4,30.7,23.2,0000.0,0004.38,0010.47,0003.55
2022-07-23 20:22:00,,0826.2,5.00,0.00,28.8,27.2,00.0,37.4,30.8,23.2,0000.0,0004.40,0009.51,0003.57
2022-07-23 20:23:00,,0826.1,5.00,0.00,28.8,27.5,00.0,37.5,30.8,23.5,0000.0,0004.36,0009.41,0003.59
2022-07-23 20:24:00,,0826.1,5.00,0.00,28.9,27.6,00.0,37.5,30.9,23.7,0000.0,0004.42,0009.61,0003.60
2022-07-23 20:25:00,,0826.1,4.99,0.00,28.9,27.1,00.0,37.4,30.8,23.8,0000.0,0004.42,0009.30,0003.61
2022-07-23 20:26:00,,0826.1,4.99,0.00,28.8,26.7,00.0,37.4,30.7,23.8,0000.0,0004.42,0009.81,0003.60
2022-07-23 20:27:00,,0826.0,5.01,0.00,28.8,26.7,00.0,37.4,30.7,23.8,0000.0,0004.40,0011.15,0003.60
2022-07-23 20:28:00,,0826.0,5.00,0.00,28.8,26.9,00.0,37.4,30.7,23.9,0000.0,0004.43,0011.33,0003.61
2022-07-23 20:29:00,,0826.0,5.00,0.00,28.8,27.1,00.0,37.4,30.7,24.0,0000.0,0004.44,0011.57,0003.62
2022-07-23 20:30:00,,0826.0,4.99,0.00,28.8,27.3,00.0,37.5,30.8,23.8,0000.0,0004.45,0012.14,0003.62
2022-07-23 20:31:00,,0826.0,5.00,0.00,28.9,27.5,00.0,37.5,30.9,23.9,0000.0,0004.45,0013.89,0003.62
2022-07-23 20:32:00,,0826.1,5.01,0.00,28.9,27.6,00.0,37.5,30.9,23.6,0000.0,0004.44,0014.51,0003.62
2022-07-23 20:33:00,,0826.0,4.99,0.00,28.9,27.1,00.0,37.4,30.9,23.5,0000.0,0004.44,0014.77,0003.62
2022-07-23 20:34:00,,0826.0,5.01,0.00,28.9,26.8,00.0,37.4,30.8,23.9,0000.0,0004.48,0015.59,0003.61
2022-07-23 20:35:00,,0826.1,4.99,0.00,28.9,26.8,00.0,37.4,30.8,24.0,0000.0,0004.48,0015.63,0003.61
2022-07-23 20:36:00,,0826.1,5.00,0.00,28.8,27.0,00.0,37.4,30.7,23.9,0000.0,0004.51,0015.58,0003.62
2022-07-23 20:37:00,,0826.2,4.99,0.00,28.8,27.2,00.0,37.5,30.8,23.9,0000.0,0004.52,0015.09,0003.62
2022-07-23 20:38:00,,0826.2,5.00,0.00,28.9,27.4,00.0,37.5,30.8,24.2,0000.0,0004.53,0015.03,0003.62
2022-07-23 20:39:00,,0826.2,5.01,0.00,28.9,27.6,00.0,37.5,30.9,24.1,0000.0,0004.53,0014.86,0003.61
2022-07-23 20:40:00,,0826.2,5.00,0.00,28.9,27.4,00.0,37.5,30.9,24.1,0000.0,0004.55,0014.64,0003.61
2022-07-23 20:41:00,,0826.2,5.00,0.00,28.9,26.8,00.0,37.4,30.8,24.1,0000.0,0004.56,0014.57,0003.63
2022-07-23 20:42:00,,0826.1,5.00,0.00,28.9,26.7,00.0,37.4,30.8,24.2,0000.0,0004.55,0013.25,0003.63
2022-07-23 20:43:00,,0826.2,4.99,0.00,28.9,26.8,00.0,37.4,30.7,24.3,0000.0,0004.57,0012.43,0003.63
2022-07-23 20:44:00,,0826.2,4.99,0.00,28.8,27.0,00.0,37.5,30.8,24.4,0000.0,0004.55,0012.36,0003.62
2022-07-23 20:45:00,,0826.2,5.00,0.00,28.9,27.2,00.0,37.5,30.8,24.1,0000.0,0004.53,0012.07,0003.62
2022-07-23 20:46:00,,0826.2,5.01,0.00,28.9,27.4,00.0,37.5,30.9,23.9,0000.0,0004.52,0011.97,0003.63
2022-07-23 20:47:00,,0826.2,5.00,0.00,28.9,27.6,00.0,37.5,30.9,24.0,0000.0,0004.52,0012.68,0003.62
2022-07-23 20:48:00,,0826.3,5.00,0.00,28.9,27.4,00.0,37.5,31.0,24.2,0000.0,0004.54,0013.57,0003.63
2022-07-23 20:49:00,,0826.2,5.00,0.00,28.9,26.8,00.0,37.5,30.8,24.1,0000.0,0004.56,0012.79,0003.65
2022-07-23 20:50:00,,0826.3,4.99,0.00,28.9,26.7,00.0,37.5,30.8,24.4,0000.0,0004.55,0013.20,0003.65
2022-07-23 20:51:00,,0826.3,5.02,0.00,28.9,26.8,00.0,37.5,30.7,24.4,0000.0,0004.53,0013.94,0003.64
2022-07-23 20:52:00,,0826.4,4.99,0.00,28.9,27.0,00.0,37.5,30.8,24.5,0000.0,0004.53,0013.66,0003.63
2022-07-23 20:53:00,,0826.4,5.00,0.00,28.9,27.2,00.0,37.5,30.8,24.5,0000.0,0004.54,0013.38,0003.63
2022-07-23 20:54:00,,0826.4,5.00,0.00,28.9,27.4,00.0,37.5,30.9,24.1,0000.0,0004.53,0013.83,0003.62
2022-07-23 20:55:00,,0826.5,5.00,0.00,28.9,27.7,00.0,37.6,31.0,24.0,0000.0,0004.55,0013.72,0003.63
2022-07-23 20:56:00,,0826.5,5.00,0.00,29.0,27.5,00.0,37.5,31.0,24.3,0000.0,0004.59,0013.96,0003.63
2022-07-23 20:57:00,,0826.4,4.99,0.00,28.9,26.9,00.0,37.5,30.9,24.5,0000.0,0004.58,0014.60,0003.63
2022-07-23 20:58:00,,0826.5,5.01,0.00,28.9,26.7,00.0,37.5,30.8,25.0,0000.0,0004.59,0014.96,0003.64
2022-07-23 20:59:00,,0826.5,5.00,0.00,28.9,26.8,00.0,37.5,30.8,25.3,0000.0,0004.58,0015.07,0003.63
